sat.trackr.live / text

‹ back to catalog

STARLINK-31381

NORAD 59469 · 2024-068Q

PAYLOAD ACTIVE UNKNOWN

§ Identity

Operator
Country
US
Launch date
2024-04-10
Launch site
AFETR
Launch vehicle
Mass (kg)
RCS (m²)

Purposes: comms

External: N2YO · Heavens-Above · Gunter

§ Orbital elements

Epoch: 2026-05-25T04:55:48.379584Z

Period
94.27 min
Inclination
43.0035°
Eccentricity
0.0001774
Mean motion
15.27577105 rev/d
Perigee alt
481.8 km
Apogee alt
484.3 km
Semi-major
6,861.2 km
B*
1.7269e-4
RAAN
319.0406°
Arg perigee
266.0927°
Mean anomaly
93.9722°
Rev number
12,026

§ Raw data

STARLINK-313811 59469U 24068Q   26145.20542106  .00004492  00000+0  17269-3 0  99972 59469  43.0035 319.0406 0001774 266.0927  93.9722 15.27577105120267

JSON: /api/v1/satellites/59469 · /tle

For live sub-satellite position, see the globe view (requires WebGL).

§ Visibility from observer

Set your observer location to see the next 7 days of passes ≥ 10°. The values pass through the URL so the page stays shareable.

No JS? Fill the form by hand. The geolocation button needs JavaScript.